TimeAKDT,TemperatureF,Dew PointF,Humidity,Sea Level PressureIn,VisibilityMPH,Wind Direction,Wind SpeedMPH,Gust SpeedMPH,PrecipitationIn,Events,Conditions,WindDirDegrees,DateUTC
12:53 AM,66.9,55.0,66,29.95,10.0,SSE,4.6,-,N/A,,Mostly Cloudy,160,2013-07-25 08:53:00
1:53 AM,66.9,54.0,63,29.96,10.0,SSE,5.8,-,N/A,,Mostly Cloudy,160,2013-07-25 09:53:00
2:53 AM,64.9,55.0,70,29.96,10.0,South,5.8,-,N/A,,Mostly Cloudy,170,2013-07-25 10:53:00
3:53 AM,66.0,55.0,68,29.97,10.0,Variable,5.8,-,N/A,,Mostly Cloudy,0,2013-07-25 11:53:00
4:53 AM,64.9,54.0,68,29.97,10.0,South,6.9,-,0.00,Rain,Light Rain,170,2013-07-25 12:53:00
5:53 AM,64.0,55.0,73,29.98,10.0,SSE,3.5,-,0.00,Rain,Light Rain,150,2013-07-25 13:53:00
6:53 AM,62.1,57.0,84,29.98,10.0,Calm,Calm,-,0.04,Rain,Light Rain,0,2013-07-25 14:53:00
7:53 AM,61.0,57.9,90,29.99,10.0,NNW,3.5,-,0.00,,Mostly Cloudy,330,2013-07-25 15:53:00
8:53 AM,63.0,57.9,84,30.00,10.0,Calm,Calm,-,N/A,,Mostly Cloudy,0,2013-07-25 16:53:00
9:53 AM,66.9,59.0,76,30.00,10.0,Calm,Calm,-,N/A,,Mostly Cloudy,0,2013-07-25 17:53:00
10:53 AM,66.0,57.0,73,30.00,10.0,SSE,8.1,-,N/A,,Mostly Cloudy,160,2013-07-25 18:53:00
11:53 AM,68.0,55.9,65,30.00,10.0,South,11.5,23.0,N/A,,Mostly Cloudy,170,2013-07-25 19:53:00
12:53 PM,70.0,55.9,61,30.00,10.0,WSW,3.5,-,N/A,,Mostly Cloudy,250,2013-07-25 20:53:00
1:53 PM,72.0,57.0,59,30.00,10.0,WNW,8.1,-,N/A,,Mostly Cloudy,290,2013-07-25 21:53:00
2:53 PM,70.0,55.9,61,30.00,10.0,NW,6.9,-,N/A,,Mostly Cloudy,310,2013-07-25 22:53:00
3:53 PM,71.1,57.0,61,29.99,10.0,WNW,6.9,-,N/A,,Mostly Cloudy,300,2013-07-25 23:53:00
4:53 PM,73.0,57.9,59,29.99,10.0,West,4.6,-,N/A,,Mostly Cloudy,280,2013-07-26 00:53:00
5:53 PM,72.0,57.9,61,29.98,10.0,WNW,8.1,-,N/A,,Mostly Cloudy,290,2013-07-26 01:53:00
6:53 PM,66.9,57.0,70,29.99,10.0,WNW,6.9,-,N/A,,Mostly Cloudy,290,2013-07-26 02:53:00
7:53 PM,66.9,55.9,68,29.99,10.0,SW,5.8,-,N/A,,Mostly Cloudy,230,2013-07-26 03:53:00
8:53 PM,64.0,57.0,78,30.02,10.0,WNW,6.9,-,N/A,,Mostly Cloudy,300,2013-07-26 04:53:00
9:53 PM,62.1,55.0,78,30.04,10.0,WSW,11.5,-,0.00,,Mostly Cloudy,250,2013-07-26 05:53:00
10:53 PM,63.0,57.9,84,30.04,10.0,South,5.8,-,0.01,,Mostly Cloudy,170,2013-07-26 06:53:00
11:53 PM,62.1,57.0,84,30.07,10.0,West,9.2,-,0.00,Rain,Light Rain,260,2013-07-26 07:53:00